Terug naar catalogus

STARLINK-35138

ActiefCommunicatieVLEO
NORAD 65420·PAYLOAD·🇺🇸 United States

Gelanceerd Aug 31, 2025 vanaf Cape Canaveral Space Force Station

Loading…

Volgende Passages (komende 24 uur)

TLE

VersSource: CelesTrak SupGP

Epoch: Sep 14, 2026, 14:21 UTC

1 65420C 25192S   26257.59840278 -.00017681  00000+0 -56862-3 0  2572
2 65420  53.1586  73.3727 0001219  89.8830  83.1378 15.31708375    16

Volg STARLINK-35138 in realtime met AllMySat

Download on the App Store